COSMOS 2251 DEB, 38001

Orbit data source: Space-Track

COSMOS 2251 DEB, 38001 is space debris in LEO originally from a launch on Wed, 16 Jun 1993 UTC launched from the Plesetsk Missile And Space Complex (PKMTR). The debris from Iridium 33, an American commercial communications satellite, has been tracked extensively since its accidental collision with the defunct Russian satellite Cosmos 2251 in 2009. This event, occurring at high speed in low Earth orbit (LEO), generated thousands of pieces of space debris, significantly increasing the risk of further collisions. The Iridium 33 debris cloud has impacted space traffic management and orbital debris mitigation strategies, making it a subject of ongoing study in space situational awareness.

Loading next visibility...
Identifier
38001, 1993-036BRC
Orbit
LEO
Country
Flag of CISCIS
Related business
Manufacturer
Unknown
Mission
Spacecraft
Bus & Motor
Unknown
Mass
Unknown
Launch date (UTC)
1993-06-16 (33 years ago)
Launch vehicle
Unknown
Launch site
Plesetsk Missile And Space Complex (PKMTR)
Object type
Payload
Rocket body
Debris
Shape & HBR
Unknown shape, 0.1 m
Radar Cross Section
Small (<0.1 m²)

Expand to show TLE details & history
Last TLE update: 1 week ago

TLE from 1 week ago
0 COSMOS 2251 DEB
1 38001U 93036BRC 26249.64090338  .00001583  00000-0  20027-3 0  9990
2 38001  74.0012 323.0462 0061657  43.6649 105.7396 14.81449399786728
Epoch: 2026-09-06T15:22Z
TLE epoch observation values (Epoch: 2026-09-06T15:22:54.052Z)
Latitude
28.70135°
Longitude
-82.39475°
Altitude
639.987 km
Speed
7.534 km/s
True Right ascension
08h 56m 15s
True Declination
28° 33' 15"
Sunlit
Object was in daylight at epoch
Visualization orbit readout
Latitude
Unknown
Longitude
Unknown
Altitude
Unknown
Speed
Unknown
Apparent Right ascension
Unknown
Apparent Declination
Unknown
Sunlit
N/A
Visualization observer readout
Local Sidereal Time
13:59:05
Azimuth
Unknown
Elevation
Unknown
Doppler factor
Unknown
Orbital elements
Apogee altitude
665.492 km
Perigee altitude
579.167 km
Semi-major axis
7,000.467 km
Eccentricity
0.00617
Inclination
74.0012°
RAAN
323.0462°
Arg. of periapsis
43.6649°
True anomaly
106.41821°
Mean anomaly
105.7396°
Eccentric anomaly
106.07905°
Mean motion
3.70555 °/min
Orbital period
97.15 mins
BSTAR
0.00020027
Loading maneuver chart data...
Computing Atmospheric mass density...

Documentation

Showing up to 5 results
|